Time,TemperatureF,DewpointF,PressureIn,WindDirection,WindDirectionDegrees,WindSpeedMPH,WindSpeedGustMPH,Humidity,HourlyPrecipIn,Conditions,Clouds,dailyrainin,SoftwareType,DateUTC
2013-03-18 00:02:00,64.8,55.9,30.08,North,0,3.0,3.0,73,0.00,,,0.00,meteohub,2013-03-18 04:02:00,
2013-03-18 00:07:00,64.6,56.1,30.08,North,0,0.0,3.0,74,0.00,,,0.00,meteohub,2013-03-18 04:07:00,
2013-03-18 00:12:00,64.4,56.3,30.07,North,0,0.0,3.0,75,0.00,,,0.00,meteohub,2013-03-18 04:12:00,
2013-03-18 00:17:00,64.2,56.1,30.07,North,0,2.0,3.0,75,0.00,,,0.00,meteohub,2013-03-18 04:17:00,
2013-03-18 00:22:00,64.0,56.3,30.06,North,0,0.0,3.0,76,0.00,,,0.00,meteohub,2013-03-18 04:22:00,
2013-03-18 00:27:00,64.0,56.3,30.06,North,0,1.0,4.0,76,0.00,,,0.00,meteohub,2013-03-18 04:27:00,
2013-03-18 00:32:00,64.0,56.3,30.06,North,0,0.0,4.0,76,0.00,,,0.00,meteohub,2013-03-18 04:32:00,
2013-03-18 00:37:00,64.0,56.7,30.06,North,0,1.0,4.0,77,0.00,,,0.00,meteohub,2013-03-18 04:37:00,
2013-03-18 00:42:00,63.9,56.5,30.07,North,0,1.0,4.0,77,0.00,,,0.00,meteohub,2013-03-18 04:42:00,
2013-03-18 00:47:00,63.9,56.5,30.07,North,0,4.0,5.0,77,0.00,,,0.00,meteohub,2013-03-18 04:47:00,
2013-03-18 00:52:00,63.9,56.1,30.07,North,0,0.0,5.0,76,0.00,,,0.00,meteohub,2013-03-18 04:52:00,
2013-03-18 00:57:00,63.9,56.1,30.07,North,0,1.0,5.0,76,0.00,,,0.00,meteohub,2013-03-18 04:57:00,
2013-03-18 01:02:00,63.9,56.1,30.06,North,0,2.0,7.0,76,0.00,,,0.00,meteohub,2013-03-18 05:02:00,
2013-03-18 01:12:00,63.9,56.1,30.06,North,0,1.0,7.0,76,0.00,,,0.00,meteohub,2013-03-18 05:12:00,
2013-03-18 01:17:00,63.9,56.1,30.06,North,0,2.0,6.0,76,0.00,,,0.00,meteohub,2013-03-18 05:17:00,
2013-03-18 01:22:00,63.9,56.1,30.06,North,0,1.0,6.0,76,0.00,,,0.00,meteohub,2013-03-18 05:22:00,
2013-03-18 01:27:00,63.9,56.1,30.06,North,0,0.0,6.0,76,0.00,,,0.00,meteohub,2013-03-18 05:27:00,
2013-03-18 01:36:00,63.7,55.9,30.06,North,0,0.0,4.0,76,0.00,,,0.00,meteohub,2013-03-18 05:36:00,
2013-03-18 01:42:00,63.7,56.3,30.05,North,0,0.0,1.0,77,0.00,,,0.00,meteohub,2013-03-18 05:42:00,
2013-03-18 01:47:00,63.5,56.1,30.05,North,0,0.0,1.0,77,0.00,,,0.00,meteohub,2013-03-18 05:47:00,
2013-03-18 01:52:00,63.3,55.9,30.05,North,0,0.0,1.0,77,0.00,,,0.00,meteohub,2013-03-18 05:52:00,
2013-03-18 01:57:00,63.3,55.9,30.05,North,0,0.0,1.0,77,0.00,,,0.00,meteohub,2013-03-18 05:57:00,
2013-03-18 02:02:00,63.3,55.9,30.05,North,0,0.0,2.0,77,0.00,,,0.00,meteohub,2013-03-18 06:02:00,
2013-03-18 02:07:00,63.3,55.9,30.05,North,0,0.0,2.0,77,0.00,,,0.00,meteohub,2013-03-18 06:07:00,
2013-03-18 02:12:00,63.3,56.3,30.05,North,0,1.0,2.0,78,0.00,,,0.00,meteohub,2013-03-18 06:12:00,
2013-03-18 02:17:00,63.1,56.1,30.05,North,0,2.0,5.0,78,0.00,,,0.00,meteohub,2013-03-18 06:17:00,
2013-03-18 02:22:00,63.1,56.5,30.05,North,0,0.0,5.0,79,0.00,,,0.00,meteohub,2013-03-18 06:22:00,
2013-03-18 02:27:00,63.1,56.5,30.05,North,0,0.0,5.0,79,0.00,,,0.00,meteohub,2013-03-18 06:27:00,
2013-03-18 02:32:00,63.0,56.3,30.04,North,0,0.0,5.0,79,0.00,,,0.00,meteohub,2013-03-18 06:32:00,
2013-03-18 02:37:00,63.0,56.7,30.04,North,0,0.0,5.0,80,0.00,,,0.00,meteohub,2013-03-18 06:37:00,
2013-03-18 02:47:00,63.0,56.7,30.04,North,0,0.0,5.0,80,0.00,,,0.00,meteohub,2013-03-18 06:47:00,
2013-03-18 02:52:00,63.0,56.7,30.04,North,0,0.0,0.0,80,0.00,,,0.00,meteohub,2013-03-18 06:52:00,
2013-03-18 02:57:00,63.0,56.7,30.04,North,0,0.0,0.0,80,0.00,,,0.00,meteohub,2013-03-18 06:57:00,
2013-03-18 03:02:00,63.0,57.4,30.04,North,0,0.0,0.0,82,0.00,,,0.00,meteohub,2013-03-18 07:02:00,
2013-03-18 03:07:00,63.0,57.0,30.04,North,0,0.0,0.0,81,0.00,,,0.00,meteohub,2013-03-18 07:07:00,
2013-03-18 03:12:00,63.0,57.0,30.04,North,0,0.0,0.0,81,0.00,,,0.00,meteohub,2013-03-18 07:12:00,
2013-03-18 03:17:00,63.0,57.4,30.04,North,0,0.0,0.0,82,0.00,,,0.00,meteohub,2013-03-18 07:17:00,
2013-03-18 03:22:00,62.8,56.8,30.04,North,0,0.0,0.0,81,0.00,,,0.00,meteohub,2013-03-18 07:22:00,
2013-03-18 03:32:00,62.4,56.8,30.03,North,0,0.0,0.0,82,0.00,,,0.00,meteohub,2013-03-18 07:32:00,
2013-03-18 03:42:00,62.4,56.8,30.03,North,0,0.0,0.0,82,0.00,,,0.00,meteohub,2013-03-18 07:42:00,
2013-03-18 03:52:00,62.2,56.7,30.02,North,0,0.0,0.0,82,0.00,,,0.00,meteohub,2013-03-18 07:52:00,
2013-03-18 03:57:00,62.2,56.7,30.02,North,0,0.0,0.0,82,0.00,,,0.00,meteohub,2013-03-18 07:57:00,
2013-03-18 04:02:00,62.1,56.8,30.02,North,0,0.0,0.0,83,0.00,,,0.00,meteohub,2013-03-18 08:02:00,
2013-03-18 04:07:00,62.1,56.8,30.02,North,0,0.0,0.0,83,0.00,,,0.00,meteohub,2013-03-18 08:07:00,
2013-03-18 04:12:00,62.1,56.8,30.02,North,0,0.0,0.0,83,0.00,,,0.00,meteohub,2013-03-18 08:12:00,
2013-03-18 04:17:00,62.1,56.8,30.02,North,0,0.0,0.0,83,0.00,,,0.00,meteohub,2013-03-18 08:17:00,
2013-03-18 04:27:00,61.9,57.0,30.01,North,0,0.0,0.0,84,0.00,,,0.00,meteohub,2013-03-18 08:27:00,
2013-03-18 04:32:00,61.9,57.0,30.01,North,0,0.0,0.0,84,0.00,,,0.00,meteohub,2013-03-18 08:32:00,
2013-03-18 04:37:00,61.9,57.0,30.00,North,0,0.0,0.0,84,0.00,,,0.00,meteohub,2013-03-18 08:37:00,
2013-03-18 04:47:00,61.7,56.8,30.01,North,0,0.0,2.0,84,0.00,,,0.00,meteohub,2013-03-18 08:47:00,
2013-03-18 04:57:00,61.9,57.4,30.02,North,0,0.0,0.0,85,0.00,,,0.00,meteohub,2013-03-18 08:57:00,
2013-03-18 05:07:00,61.9,57.4,30.01,North,0,0.0,0.0,85,0.00,,,0.00,meteohub,2013-03-18 09:07:00,
2013-03-18 05:12:00,62.1,57.7,30.02,North,0,0.0,0.0,86,0.00,,,0.00,meteohub,2013-03-18 09:12:00,
2013-03-18 05:17:00,62.1,57.7,30.01,North,0,0.0,0.0,86,0.00,,,0.00,meteohub,2013-03-18 09:17:00,
2013-03-18 05:22:00,61.9,57.6,30.01,North,0,0.0,0.0,86,0.00,,,0.00,meteohub,2013-03-18 09:22:00,
2013-03-18 05:27:00,61.9,57.6,30.01,North,0,0.0,0.0,86,0.00,,,0.00,meteohub,2013-03-18 09:27:00,
2013-03-18 05:32:00,61.9,57.9,30.02,North,0,0.0,0.0,87,0.00,,,0.00,meteohub,2013-03-18 09:32:00,
2013-03-18 05:42:00,61.9,57.9,30.02,North,0,0.0,0.0,87,0.00,,,0.00,meteohub,2013-03-18 09:42:00,
2013-03-18 05:47:00,61.9,57.9,30.02,North,0,0.0,0.0,87,0.00,,,0.00,meteohub,2013-03-18 09:47:00,
2013-03-18 05:52:00,61.7,57.7,30.02,North,0,0.0,0.0,87,0.00,,,0.00,meteohub,2013-03-18 09:52:00,
2013-03-18 05:57:00,61.7,57.7,30.02,North,0,0.0,0.0,87,0.00,,,0.00,meteohub,2013-03-18 09:57:00,
2013-03-18 06:02:00,61.9,57.9,30.02,North,0,0.0,0.0,87,0.00,,,0.00,meteohub,2013-03-18 10:02:00,
2013-03-18 06:07:00,61.9,57.9,30.02,North,0,0.0,0.0,87,0.00,,,0.00,meteohub,2013-03-18 10:07:00,
2013-03-18 06:12:00,61.9,58.3,30.02,North,0,0.0,0.0,88,0.00,,,0.00,meteohub,2013-03-18 10:12:00,
2013-03-18 06:22:00,61.9,58.3,30.03,North,0,0.0,0.0,88,0.00,,,0.00,meteohub,2013-03-18 10:22:00,
2013-03-18 06:32:00,61.9,58.3,30.03,North,0,0.0,0.0,88,0.00,,,0.00,meteohub,2013-03-18 10:32:00,
2013-03-18 06:37:00,61.9,58.6,30.04,North,0,0.0,0.0,89,0.00,,,0.00,meteohub,2013-03-18 10:37:00,
2013-03-18 06:42:00,61.9,58.6,30.04,North,0,0.0,0.0,89,0.00,,,0.00,meteohub,2013-03-18 10:42:00,
2013-03-18 06:47:00,61.9,59.0,30.04,North,0,0.0,0.0,90,0.00,,,0.00,meteohub,2013-03-18 10:47:00,
2013-03-18 06:57:00,61.9,59.0,30.04,North,0,0.0,0.0,90,0.00,,,0.00,meteohub,2013-03-18 10:57:00,
2013-03-18 07:02:00,61.9,59.0,30.05,North,0,0.0,0.0,90,0.00,,,0.00,meteohub,2013-03-18 11:02:00,
2013-03-18 07:07:00,61.9,59.0,30.05,North,0,0.0,0.0,90,0.00,,,0.00,meteohub,2013-03-18 11:07:00,
2013-03-18 07:12:00,61.9,59.0,30.05,North,0,0.0,0.0,90,0.00,,,0.00,meteohub,2013-03-18 11:12:00,
2013-03-18 07:22:00,61.9,59.0,30.05,North,0,0.0,0.0,90,0.00,,,0.00,meteohub,2013-03-18 11:22:00,
2013-03-18 07:27:00,61.9,59.0,30.05,North,0,0.0,0.0,90,0.00,,,0.00,meteohub,2013-03-18 11:27:00,
2013-03-18 07:37:00,61.9,59.0,30.06,North,0,0.0,0.0,90,0.00,,,0.00,meteohub,2013-03-18 11:37:00,
2013-03-18 07:42:00,62.1,59.2,30.06,North,0,0.0,0.0,90,0.00,,,0.00,meteohub,2013-03-18 11:42:00,
2013-03-18 07:47:00,62.1,59.4,30.06,North,0,0.0,0.0,91,0.00,,,0.00,meteohub,2013-03-18 11:47:00,
2013-03-18 07:52:00,62.2,59.5,30.06,North,0,0.0,0.0,91,0.00,,,0.00,meteohub,2013-03-18 11:52:00,
2013-03-18 07:57:00,62.4,59.7,30.06,North,0,0.0,0.0,91,0.00,,,0.00,meteohub,2013-03-18 11:57:00,
2013-03-18 08:02:00,62.4,59.4,30.06,North,0,0.0,0.0,90,0.00,,,0.00,meteohub,2013-03-18 12:02:00,
2013-03-18 08:12:00,62.6,60.3,30.06,North,0,0.0,1.0,92,0.00,,,0.00,meteohub,2013-03-18 12:12:00,
2013-03-18 08:17:00,62.8,59.7,30.06,North,0,0.0,2.0,90,0.00,,,0.00,meteohub,2013-03-18 12:17:00,
2013-03-18 08:22:00,62.8,59.7,30.06,North,0,0.0,2.0,90,0.00,,,0.00,meteohub,2013-03-18 12:22:00,
2013-03-18 08:27:00,63.0,59.9,30.07,North,0,0.0,2.0,90,0.00,,,0.00,meteohub,2013-03-18 12:27:00,
2013-03-18 08:32:00,63.0,59.9,30.07,North,0,0.0,1.0,90,0.00,,,0.00,meteohub,2013-03-18 12:32:00,
2013-03-18 08:37:00,63.1,60.1,30.07,North,0,0.0,1.0,90,0.00,,,0.00,meteohub,2013-03-18 12:37:00,
2013-03-18 08:42:00,63.3,60.3,30.07,North,0,2.0,2.0,90,0.00,,,0.00,meteohub,2013-03-18 12:42:00,
2013-03-18 08:47:00,63.5,60.4,30.07,North,0,0.0,2.0,90,0.00,,,0.00,meteohub,2013-03-18 12:47:00,
2013-03-18 08:52:00,63.7,60.4,30.07,North,0,0.0,3.0,89,0.00,,,0.00,meteohub,2013-03-18 12:52:00,
2013-03-18 08:57:00,63.9,60.6,30.07,North,0,0.0,3.0,89,0.00,,,0.00,meteohub,2013-03-18 12:57:00,
2013-03-18 09:07:00,64.2,61.0,30.07,North,0,2.0,3.0,89,0.00,,,0.00,meteohub,2013-03-18 13:07:00,
2013-03-18 09:12:00,64.4,60.8,30.08,North,0,0.0,3.0,88,0.00,,,0.00,meteohub,2013-03-18 13:12:00,
2013-03-18 09:17:00,64.8,61.2,30.07,North,0,0.0,3.0,88,0.00,,,0.00,meteohub,2013-03-18 13:17:00,
2013-03-18 09:22:00,64.9,61.3,30.08,North,0,0.0,3.0,88,0.00,,,0.00,meteohub,2013-03-18 13:22:00,
2013-03-18 09:32:00,65.3,61.0,30.08,North,0,0.0,3.0,86,0.00,,,0.00,meteohub,2013-03-18 13:32:00,
2013-03-18 09:37:00,65.5,60.8,30.08,North,0,1.0,3.0,85,0.00,,,0.00,meteohub,2013-03-18 13:37:00,
2013-03-18 09:42:00,65.7,61.3,30.08,North,0,2.0,6.0,86,0.00,,,0.00,meteohub,2013-03-18 13:42:00,
2013-03-18 09:47:00,65.8,61.2,30.08,North,0,2.0,6.0,85,0.00,,,0.00,meteohub,2013-03-18 13:47:00,
2013-03-18 09:57:00,66.0,61.0,30.09,North,0,2.0,5.0,84,0.00,,,0.00,meteohub,2013-03-18 13:57:00,
2013-03-18 10:02:00,66.0,61.0,30.09,North,0,4.0,5.0,84,0.00,,,0.00,meteohub,2013-03-18 14:02:00,
2013-03-18 10:07:00,66.0,61.0,30.08,North,0,2.0,5.0,84,0.00,,,0.00,meteohub,2013-03-18 14:07:00,
2013-03-18 10:12:00,66.4,61.0,30.08,North,0,3.0,6.0,83,0.00,,,0.00,meteohub,2013-03-18 14:12:00,
2013-03-18 10:17:00,66.4,61.0,30.09,North,0,3.0,6.0,83,0.00,,,0.00,meteohub,2013-03-18 14:17:00,
2013-03-18 10:27:00,66.9,61.2,30.08,North,0,2.0,6.0,82,0.00,,,0.00,meteohub,2013-03-18 14:27:00,
2013-03-18 10:32:00,67.6,61.5,30.07,North,0,1.0,5.0,81,0.00,,,0.00,meteohub,2013-03-18 14:32:00,
2013-03-18 10:37:00,68.0,61.2,30.07,North,0,4.0,5.0,79,0.00,,,0.00,meteohub,2013-03-18 14:37:00,
2013-03-18 10:42:00,68.4,61.2,30.07,North,0,1.0,8.0,78,0.00,,,0.00,meteohub,2013-03-18 14:42:00,
2013-03-18 10:47:00,68.7,61.2,30.07,North,0,6.0,8.0,77,0.00,,,0.00,meteohub,2013-03-18 14:47:00,
2013-03-18 10:57:00,69.1,61.5,30.08,North,0,5.0,9.0,77,0.00,,,0.00,meteohub,2013-03-18 14:57:00,
2013-03-18 11:02:00,69.3,61.7,30.07,North,0,6.0,9.0,77,0.00,,,0.00,meteohub,2013-03-18 15:02:00,
2013-03-18 11:07:00,69.3,61.3,30.07,North,0,3.0,9.0,76,0.00,,,0.00,meteohub,2013-03-18 15:07:00,
2013-03-18 11:12:00,69.3,61.3,30.07,North,0,7.0,11.0,76,0.00,,,0.00,meteohub,2013-03-18 15:12:00,
2013-03-18 11:22:00,69.3,61.3,30.07,North,0,5.0,11.0,76,0.00,,,0.00,meteohub,2013-03-18 15:22:00,
2013-03-18 11:27:00,69.3,61.0,30.07,North,0,6.0,11.0,75,0.00,,,0.00,meteohub,2013-03-18 15:27:00,
2013-03-18 11:37:00,68.9,61.3,30.07,North,0,4.0,11.0,77,0.00,,,0.00,meteohub,2013-03-18 15:37:00,
2013-03-18 11:42:00,69.1,61.5,30.07,North,0,4.0,11.0,77,0.00,,,0.00,meteohub,2013-03-18 15:42:00,
2013-03-18 11:52:00,69.3,61.7,30.06,North,0,4.0,9.0,77,0.00,,,0.00,meteohub,2013-03-18 15:52:00,
2013-03-18 11:57:00,70.0,62.1,30.06,North,0,3.0,9.0,76,0.00,,,0.00,meteohub,2013-03-18 15:57:00,
2013-03-18 12:02:00,70.5,62.2,30.06,North,0,6.0,11.0,75,0.00,,,0.00,meteohub,2013-03-18 16:02:00,
2013-03-18 12:07:00,71.1,62.8,30.06,North,0,8.0,11.0,75,0.00,,,0.00,meteohub,2013-03-18 16:07:00,
2013-03-18 12:12:00,70.9,62.2,30.06,North,0,4.0,11.0,74,0.00,,,0.00,meteohub,2013-03-18 16:12:00,
2013-03-18 12:17:00,70.5,62.2,30.06,North,0,3.0,11.0,75,0.00,,,0.00,meteohub,2013-03-18 16:17:00,
2013-03-18 12:22:00,70.9,62.6,30.06,North,0,3.0,10.0,75,0.00,,,0.00,meteohub,2013-03-18 16:22:00,
2013-03-18 12:27:00,70.9,62.6,30.06,North,0,4.0,10.0,75,0.00,,,0.00,meteohub,2013-03-18 16:27:00,
2013-03-18 12:32:00,70.9,62.2,30.06,North,0,4.0,8.0,74,0.00,,,0.00,meteohub,2013-03-18 16:32:00,
2013-03-18 12:42:00,71.4,62.2,30.05,North,0,6.0,9.0,73,0.00,,,0.00,meteohub,2013-03-18 16:42:00,
2013-03-18 12:52:00,72.0,62.4,30.04,North,0,5.0,11.0,72,0.00,,,0.00,meteohub,2013-03-18 16:52:00,
2013-03-18 12:57:00,72.3,63.1,30.04,North,0,3.0,11.0,73,0.00,,,0.00,meteohub,2013-03-18 16:57:00,
2013-03-18 13:02:00,72.9,63.0,30.04,North,0,1.0,10.0,71,0.00,,,0.00,meteohub,2013-03-18 17:02:00,
2013-03-18 13:07:00,72.9,63.0,30.04,North,0,6.0,10.0,71,0.00,,,0.00,meteohub,2013-03-18 17:07:00,
2013-03-18 13:12:00,72.9,63.0,30.03,North,0,7.0,9.0,71,0.00,,,0.00,meteohub,2013-03-18 17:12:00,
2013-03-18 13:17:00,73.0,62.6,30.03,North,0,6.0,9.0,70,0.00,,,0.00,meteohub,2013-03-18 17:17:00,
2013-03-18 13:22:00,73.9,63.5,30.03,North,0,5.0,10.0,70,0.00,,,0.00,meteohub,2013-03-18 17:22:00,
2013-03-18 13:27:00,74.5,63.1,30.03,North,0,4.0,10.0,68,0.00,,,0.00,meteohub,2013-03-18 17:27:00,
2013-03-18 13:32:00,74.7,63.9,30.02,North,0,2.0,10.0,69,0.00,,,0.00,meteohub,2013-03-18 17:32:00,
2013-03-18 13:37:00,75.0,63.3,30.03,North,0,3.0,10.0,67,0.00,,,0.00,meteohub,2013-03-18 17:37:00,
2013-03-18 13:42:00,75.7,62.8,30.02,North,0,9.0,9.0,64,0.00,,,0.00,meteohub,2013-03-18 17:42:00,
2013-03-18 13:47:00,75.9,61.5,30.02,North,0,3.0,8.0,61,0.00,,,0.00,meteohub,2013-03-18 17:47:00,
2013-03-18 13:52:00,76.3,61.9,30.02,North,0,6.0,14.0,61,0.00,,,0.00,meteohub,2013-03-18 17:52:00,
2013-03-18 13:57:00,76.6,61.2,30.01,North,0,3.0,14.0,59,0.00,,,0.00,meteohub,2013-03-18 17:57:00,
2013-03-18 14:02:00,77.2,60.8,30.00,North,0,4.0,18.0,57,0.00,,,0.00,meteohub,2013-03-18 18:02:00,
2013-03-18 14:07:00,77.0,60.6,30.00,North,0,10.0,18.0,57,0.00,,,0.00,meteohub,2013-03-18 18:07:00,
2013-03-18 14:12:00,76.6,61.2,30.00,North,0,7.0,17.0,59,0.00,,,0.00,meteohub,2013-03-18 18:12:00,
2013-03-18 14:22:00,77.2,61.3,29.99,North,0,4.0,17.0,58,0.00,,,0.00,meteohub,2013-03-18 18:22:00,
2013-03-18 14:27:00,77.4,61.9,29.98,North,0,8.0,17.0,59,0.00,,,0.00,meteohub,2013-03-18 18:27:00,
2013-03-18 14:38:00,77.2,62.2,29.98,North,0,3.0,17.0,60,0.00,,,0.00,meteohub,2013-03-18 18:38:00,
2013-03-18 14:47:00,77.5,62.1,29.97,North,0,6.0,13.0,59,0.00,,,0.00,meteohub,2013-03-18 18:47:00,
2013-03-18 14:57:00,78.1,62.6,29.96,North,0,9.0,15.0,59,0.00,,,0.00,meteohub,2013-03-18 18:57:00,
2013-03-18 15:02:00,77.5,62.1,29.96,North,0,4.0,15.0,59,0.00,,,0.00,meteohub,2013-03-18 19:02:00,
2013-03-18 15:07:00,77.5,62.1,29.96,North,0,6.0,15.0,59,0.00,,,0.00,meteohub,2013-03-18 19:07:00,
2013-03-18 15:12:00,77.9,62.4,29.95,North,0,2.0,14.0,59,0.00,,,0.00,meteohub,2013-03-18 19:12:00,
2013-03-18 15:22:00,78.3,62.2,29.95,North,0,4.0,12.0,58,0.00,,,0.00,meteohub,2013-03-18 19:22:00,
2013-03-18 15:27:00,78.4,63.0,29.94,North,0,9.0,12.0,59,0.00,,,0.00,meteohub,2013-03-18 19:27:00,
2013-03-18 15:32:00,78.4,62.4,29.95,North,0,7.0,13.0,58,0.00,,,0.00,meteohub,2013-03-18 19:32:00,
2013-03-18 15:37:00,78.1,62.6,29.94,North,0,8.0,13.0,59,0.00,,,0.00,meteohub,2013-03-18 19:37:00,
2013-03-18 15:42:00,77.7,62.8,29.94,North,0,3.0,11.0,60,0.00,,,0.00,meteohub,2013-03-18 19:42:00,
2013-03-18 15:52:00,78.3,62.8,29.94,North,0,4.0,12.0,59,0.00,,,0.00,meteohub,2013-03-18 19:52:00,
2013-03-18 15:57:00,78.3,62.8,29.94,North,0,8.0,12.0,59,0.00,,,0.00,meteohub,2013-03-18 19:57:00,
2013-03-18 16:07:00,77.5,63.0,29.93,North,0,7.0,12.0,61,0.00,,,0.00,meteohub,2013-03-18 20:07:00,
2013-03-18 16:12:00,77.4,63.3,29.93,North,0,2.0,12.0,62,0.00,,,0.00,meteohub,2013-03-18 20:12:00,
2013-03-18 16:17:00,77.5,63.5,29.93,North,0,4.0,12.0,62,0.00,,,0.00,meteohub,2013-03-18 20:17:00,
2013-03-18 16:22:00,77.5,63.0,29.93,North,0,6.0,12.0,61,0.00,,,0.00,meteohub,2013-03-18 20:22:00,
2013-03-18 16:32:00,77.0,62.1,29.93,North,0,2.0,13.0,60,0.00,,,0.00,meteohub,2013-03-18 20:32:00,
2013-03-18 16:42:00,76.8,62.4,29.94,North,0,6.0,12.0,61,0.00,,,0.00,meteohub,2013-03-18 20:42:00,
2013-03-18 16:52:00,76.8,62.4,29.94,North,0,7.0,12.0,61,0.00,,,0.00,meteohub,2013-03-18 20:52:00,
2013-03-18 17:02:00,77.0,62.1,29.93,North,0,7.0,11.0,60,0.00,,,0.00,meteohub,2013-03-18 21:02:00,
2013-03-18 17:12:00,77.2,61.7,29.92,North,0,8.0,12.0,59,0.00,,,0.00,meteohub,2013-03-18 21:12:00,
2013-03-18 17:17:00,77.4,61.3,29.93,North,0,2.0,12.0,58,0.00,,,0.00,meteohub,2013-03-18 21:17:00,
2013-03-18 17:22:00,77.2,61.7,29.92,North,0,7.0,12.0,59,0.00,,,0.00,meteohub,2013-03-18 21:22:00,
2013-03-18 17:27:00,76.8,61.9,29.93,North,0,6.0,12.0,60,0.00,,,0.00,meteohub,2013-03-18 21:27:00,
2013-03-18 17:37:00,76.8,62.4,29.93,North,0,8.0,13.0,61,0.00,,,0.00,meteohub,2013-03-18 21:37:00,
2013-03-18 17:42:00,76.8,62.4,29.93,North,0,7.0,10.0,61,0.00,,,0.00,meteohub,2013-03-18 21:42:00,
2013-03-18 17:52:00,76.6,63.1,29.93,North,0,3.0,10.0,63,0.00,,,0.00,meteohub,2013-03-18 21:52:00,
2013-03-18 17:57:00,76.6,63.1,29.93,North,0,4.0,10.0,63,0.00,,,0.00,meteohub,2013-03-18 21:57:00,
2013-03-18 18:02:00,76.6,63.1,29.93,North,0,7.0,10.0,63,0.00,,,0.00,meteohub,2013-03-18 22:02:00,
2013-03-18 18:12:00,76.5,63.0,29.94,North,0,1.0,10.0,63,0.00,,,0.00,meteohub,2013-03-18 22:12:00,
2013-03-18 18:17:00,76.5,63.3,29.93,North,0,5.0,10.0,64,0.00,,,0.00,meteohub,2013-03-18 22:17:00,
2013-03-18 18:22:00,76.5,63.3,29.93,North,0,1.0,9.0,64,0.00,,,0.00,meteohub,2013-03-18 22:22:00,
2013-03-18 18:27:00,76.3,63.1,29.93,North,0,4.0,9.0,64,0.00,,,0.00,meteohub,2013-03-18 22:27:00,
2013-03-18 18:32:00,76.3,63.1,29.93,North,0,3.0,7.0,64,0.00,,,0.00,meteohub,2013-03-18 22:32:00,
2013-03-18 18:37:00,76.1,63.5,29.93,North,0,5.0,7.0,65,0.00,,,0.00,meteohub,2013-03-18 22:37:00,
2013-03-18 18:42:00,75.9,63.3,29.93,North,0,5.0,7.0,65,0.00,,,0.00,meteohub,2013-03-18 22:42:00,
2013-03-18 18:52:00,75.7,63.1,29.92,North,0,7.0,8.0,65,0.00,,,0.00,meteohub,2013-03-18 22:52:00,
2013-03-18 19:02:00,75.6,63.3,29.93,North,0,6.0,9.0,66,0.00,,,0.00,meteohub,2013-03-18 23:02:00,
2013-03-18 19:07:00,75.6,63.9,29.94,North,0,3.0,9.0,67,0.00,,,0.00,meteohub,2013-03-18 23:07:00,
2013-03-18 19:17:00,75.4,64.0,29.93,North,0,4.0,9.0,68,0.00,,,0.00,meteohub,2013-03-18 23:17:00,
2013-03-18 19:22:00,75.2,63.9,29.92,North,0,1.0,6.0,68,0.00,,,0.00,meteohub,2013-03-18 23:22:00,
2013-03-18 19:27:00,75.0,64.2,29.92,North,0,2.0,6.0,69,0.00,,,0.00,meteohub,2013-03-18 23:27:00,
2013-03-18 19:32:00,75.0,64.2,29.91,North,0,3.0,6.0,69,0.00,,,0.00,meteohub,2013-03-18 23:32:00,
2013-03-18 19:37:00,74.8,64.0,29.91,North,0,1.0,6.0,69,0.00,,,0.00,meteohub,2013-03-18 23:37:00,
2013-03-18 19:42:00,74.8,64.0,29.90,North,0,0.0,9.0,69,0.00,,,0.00,meteohub,2013-03-18 23:42:00,
2013-03-18 19:52:00,74.7,63.9,29.91,North,0,2.0,9.0,69,0.00,,,0.00,meteohub,2013-03-18 23:52:00,
2013-03-18 19:57:00,74.7,63.9,29.90,North,0,0.0,9.0,69,0.00,,,0.00,meteohub,2013-03-18 23:57:00,
2013-03-18 20:07:00,74.5,64.0,29.90,North,0,0.0,5.0,70,0.00,,,0.00,meteohub,2013-03-19 00:07:00,
2013-03-18 20:12:00,74.5,64.0,29.90,North,0,1.0,4.0,70,0.00,,,0.00,meteohub,2013-03-19 00:12:00,
2013-03-18 20:17:00,74.3,63.9,29.90,North,0,0.0,4.0,70,0.00,,,0.00,meteohub,2013-03-19 00:17:00,
2013-03-18 20:22:00,74.1,63.7,29.89,North,0,1.0,5.0,70,0.00,,,0.00,meteohub,2013-03-19 00:22:00,
2013-03-18 20:27:00,74.1,63.7,29.89,North,0,0.0,5.0,70,0.00,,,0.00,meteohub,2013-03-19 00:27:00,
2013-03-18 20:32:00,73.9,63.5,29.89,North,0,0.0,5.0,70,0.00,,,0.00,meteohub,2013-03-19 00:32:00,
2013-03-18 20:42:00,73.8,63.7,29.89,North,0,2.0,5.0,71,0.00,,,0.00,meteohub,2013-03-19 00:42:00,
2013-03-18 20:47:00,73.8,64.2,29.89,North,0,0.0,5.0,72,0.00,,,0.00,meteohub,2013-03-19 00:47:00,
2013-03-18 20:57:00,73.4,63.9,29.89,North,0,0.0,6.0,72,0.00,,,0.00,meteohub,2013-03-19 00:57:00,
2013-03-18 21:07:00,73.2,64.0,29.89,North,0,1.0,5.0,73,0.00,,,0.00,meteohub,2013-03-19 01:07:00,
2013-03-18 21:12:00,73.0,63.9,29.89,North,0,2.0,5.0,73,0.00,,,0.00,meteohub,2013-03-19 01:12:00,
2013-03-18 21:22:00,72.9,63.7,29.90,North,0,1.0,4.0,73,0.00,,,0.00,meteohub,2013-03-19 01:22:00,
2013-03-18 21:32:00,72.7,63.9,29.90,North,0,0.0,3.0,74,0.00,,,0.00,meteohub,2013-03-19 01:32:00,
2013-03-18 21:37:00,72.5,64.0,29.90,North,0,0.0,3.0,75,0.00,,,0.00,meteohub,2013-03-19 01:37:00,
2013-03-18 21:47:00,71.8,64.2,29.91,North,0,0.0,2.0,77,0.00,,,0.00,meteohub,2013-03-19 01:47:00,
2013-03-18 21:52:00,71.4,63.9,29.91,North,0,0.0,1.0,77,0.00,,,0.00,meteohub,2013-03-19 01:52:00,
2013-03-18 21:57:00,71.2,63.7,29.91,North,0,0.0,1.0,77,0.00,,,0.00,meteohub,2013-03-19 01:57:00,
2013-03-18 22:02:00,71.1,63.9,29.91,North,0,0.0,0.0,78,0.00,,,0.00,meteohub,2013-03-19 02:02:00,
2013-03-18 22:07:00,71.1,63.9,29.91,North,0,0.0,0.0,78,0.00,,,0.00,meteohub,2013-03-19 02:07:00,
2013-03-18 22:12:00,70.9,63.7,29.92,North,0,0.0,0.0,78,0.00,,,0.00,meteohub,2013-03-19 02:12:00,
2013-03-18 22:22:00,70.9,63.7,29.91,North,0,1.0,1.0,78,0.00,,,0.00,meteohub,2013-03-19 02:22:00,
2013-03-18 22:32:00,70.5,63.3,29.92,North,0,2.0,3.0,78,0.00,,,0.00,meteohub,2013-03-19 02:32:00,
2013-03-18 22:37:00,70.5,63.3,29.93,North,0,1.0,3.0,78,0.00,,,0.00,meteohub,2013-03-19 02:37:00,
2013-03-18 22:47:00,70.2,63.3,29.93,North,0,2.0,4.0,79,0.00,,,0.00,meteohub,2013-03-19 02:47:00,
2013-03-18 22:52:00,70.0,63.5,29.94,North,0,0.0,3.0,80,0.00,,,0.00,meteohub,2013-03-19 02:52:00,
2013-03-18 23:02:00,69.6,63.5,29.95,North,0,0.0,3.0,81,0.00,,,0.00,meteohub,2013-03-19 03:02:00,
2013-03-18 23:07:00,69.4,63.3,29.95,North,0,0.0,3.0,81,0.00,,,0.00,meteohub,2013-03-19 03:07:00,
2013-03-18 23:12:00,69.4,63.3,29.95,North,0,0.0,0.0,81,0.00,,,0.00,meteohub,2013-03-19 03:12:00,
2013-03-18 23:22:00,69.6,63.5,29.96,North,0,1.0,2.0,81,0.00,,,0.00,meteohub,2013-03-19 03:22:00,
2013-03-18 23:32:00,69.8,63.7,29.96,North,0,0.0,3.0,81,0.00,,,0.00,meteohub,2013-03-19 03:32:00,
2013-03-18 23:42:00,70.0,63.5,29.96,North,0,1.0,3.0,80,0.00,,,0.00,meteohub,2013-03-19 03:42:00,
2013-03-18 23:47:00,70.0,63.5,29.96,North,0,1.0,3.0,80,0.00,,,0.00,meteohub,2013-03-19 03:47:00,
2013-03-18 23:52:00,70.0,63.5,29.97,North,0,2.0,4.0,80,0.00,,,0.00,meteohub,2013-03-19 03:52:00,